This is the latest recevied weather packets stored in our database for station/object KB1YYC. If no packets are shown the sender has not sent any weather packets the latest 1 day(s).
| Time | Temp. | Humidity | Pressure | Rain* | Wind** | Luminosity | Snow |
|---|---|---|---|---|---|---|---|
| 1777980002 | 12.22° C | 72% | 1008.7 hPa | 0 mm | 0.45 m/s, 258° | 49 W/m² | - |
| 1777979696 | 11.67° C | 73% | 1008.6 hPa | 0 mm | 0.89 m/s, 242° | 45 W/m² | - |
| 1777979393 | 10.56° C | 80% | 1008.7 hPa | 0 mm | 0 m/s | 95 W/m² | - |
| 1777979089 | 9.44° C | 83% | 1008.6 hPa | 0 mm | 0 m/s | 41 W/m² | - |
| 1777978786 | 9.44° C | 83% | 1008.5 hPa | 0 mm | 0 m/s | 40 W/m² | - |
| 1777978483 | 9.44° C | 82% | 1008.5 hPa | 0 mm | 0 m/s | 42 W/m² | - |
| 1777978179 | 8.89° C | 82% | 1008.6 hPa | 0 mm | 0 m/s | 39 W/m² | - |
| 1777977878 | 8.33° C | 84% | 1008.7 hPa | 0 mm | 0 m/s | 71 W/m² | - |
| 1777977572 | 7.78° C | 86% | 1008.8 hPa | 0 mm | 0 m/s | 54 W/m² | - |
| 1777977271 | 7.78° C | 88% | 1008.9 hPa | 0 mm | 0 m/s | 30 W/m² | - |
| 1777976967 | 7.22° C | 88% | 1008.8 hPa | 0 mm | 0 m/s | 27 W/m² | - |
| 1777976664 | 7.78° C | 87% | 1008.7 hPa | 0 mm | 0 m/s | 23 W/m² | - |
| 1777976361 | 7.78° C | 86% | 1008.7 hPa | 0 mm | 0 m/s | 19 W/m² | - |
| 1777976059 | 7.78° C | 86% | 1008.7 hPa | 0 mm | 0 m/s | 15 W/m² | - |
| 1777975751 | 7.78° C | 86% | 1008.6 hPa | 0 mm | 0.45 m/s, 258° | 13 W/m² | - |
| 1777975448 | 7.78° C | 85% | 1008.7 hPa | 0 mm | 0 m/s | 12 W/m² | - |
| 1777975143 | 7.78° C | 85% | 1008.6 hPa | 0 mm | 0 m/s | 10 W/m² | - |
| 1777974841 | 7.78° C | 85% | 1008.8 hPa | 0 mm | 0 m/s | 9 W/m² | - |
| 1777974537 | 7.78° C | 85% | 1008.6 hPa | 0 mm | 0 m/s | 7 W/m² | - |
| 1777974234 | 7.78° C | 85% | 1008.8 hPa | 0 mm | 0 m/s | 5 W/m² | - |
| 1777973930 | 7.78° C | 85% | 1008.6 hPa | 0 mm | 0 m/s | 4 W/m² | - |
| 1777973627 | 7.78° C | 84% | 1008.6 hPa | 0 mm | 0 m/s | 2 W/m² | - |
| 1777973324 | 8.33° C | 84% | 1008.7 hPa | 0 mm | 0 m/s | 1 W/m² | - |
| 1777973023 | 8.33° C | 82% | 1008.6 hPa | 0 mm | 0 m/s | 1 W/m² | - |
| 1777972719 | 8.33° C | 82% | 1008.7 hPa | 0 mm | 0 m/s | 0 W/m² | - |
* Rain latest hour (hover to see other rain measurements)
** Current wind speed in m/s (hover to see current wind gust speed)